This is the latest recevied weather packets stored in our database for station/object DL4NBA-1. If no packets are shown the sender has not sent any weather packets the latest 10 day(s).
| Time | Temp. | Humidity | Pressure | Rain* | Wind** | Luminosity | Snow |
|---|---|---|---|---|---|---|---|
| 1777579138 | 9.44° C | - | - | 0 mm | 2.24 m/s, 52° | - | - |
| 1777578834 | 9.44° C | - | - | 0 mm | 2.24 m/s, 63° | - | - |
| 1777578535 | 10° C | - | - | 0 mm | 2.24 m/s, 73° | - | - |
| 1777577936 | 11.11° C | - | - | 0 mm | 2.24 m/s, 113° | - | - |
| 1777577637 | 11.67° C | - | - | 0 mm | 3.13 m/s, 68° | - | - |
| 1777577336 | 11.11° C | - | - | 0 mm | 2.68 m/s, 63° | - | - |
| 1777577036 | 11.67° C | - | - | 0 mm | 2.68 m/s, 77° | - | - |
| 1777576737 | 12.22° C | - | - | 0 mm | 2.68 m/s, 66° | - | - |
| 1777576438 | 11.67° C | - | - | 0 mm | 4.02 m/s, 82° | - | - |
| 1777576137 | 11.67° C | - | - | 0 mm | 3.13 m/s, 72° | - | - |
| 1777575834 | 12.22° C | - | - | 0 mm | 3.13 m/s, 90° | - | - |
| 1777575535 | 12.22° C | - | - | 0 mm | 2.68 m/s, 79° | - | - |
| 1777575236 | 12.22° C | - | - | 0 mm | 2.68 m/s, 69° | - | - |
| 1777574937 | 12.78° C | - | - | 0 mm | 3.13 m/s, 87° | - | - |
| 1777574638 | 12.78° C | - | - | 0 mm | 3.13 m/s, 104° | - | - |
| 1777574336 | 12.78° C | - | - | 0 mm | 3.13 m/s, 86° | - | - |
| 1777574037 | 12.78° C | - | - | 0 mm | 4.02 m/s, 93° | - | - |
| 1777573738 | 12.22° C | - | - | 0 mm | 3.58 m/s, 72° | - | - |
| 1777573439 | 12.78° C | - | - | 0 mm | 2.68 m/s, 59° | - | - |
| 1777573141 | 13.33° C | - | - | 0 mm | 3.13 m/s, 69° | - | - |
| 1777572839 | 13.89° C | - | - | 0 mm | 4.47 m/s, 84° | - | - |
| 1777572540 | 14.44° C | - | - | 0 mm | 3.58 m/s, 58° | - | - |
| 1777572242 | 15° C | - | - | 0 mm | 3.13 m/s, 70° | - | - |
| 1777571943 | 16.11° C | - | - | 0 mm | 3.58 m/s, 89° | - | - |
| 1777571644 | 16.67° C | - | - | 0 mm | 4.02 m/s, 80° | - | - |
* Rain latest hour (hover to see other rain measurements)
** Current wind speed in m/s (hover to see current wind gust speed)